Wind_Speed
37 40 43 44 44 44 44 41 39 41 42 40 36 36 42 41 38 35 32 28 27 28 28 25 23 20 18 15 14 14 12 12 12 10 8 7 5 4 3 5 7 10 12
33 37 39 41 43 46 44 42 40 41 41 40 38 36 41 44 43 37 36 29 29 30 29 26 24 22 19 17 16 14 13 11 11 9 7 7 5 4 4 5 6 9 11
28 32 37 41 44 45 45 43 40 39 41 40 39 34 42 39 42 41 36 30 30 31 29 26 25 23 20 18 17 16 13 11 10 9 8 8 6 5 4 4 6 8 10
23 27 30 35 39 39 37 35 35 35 36 35 38 36 36 45 42 40 37 32 31 30 29 26 25 23 20 19 19 16 14 12 12 10 10 9 7 6 6 5 7 8 9
17 19 21 25 29 29 29 29 29 31 33 35 35 35 39 38 47 40 35 34 33 32 29 27 25 23 22 20 19 17 15 14 13 12 12 11 8 7 7 8 9 10 12
16 15 17 19 23 25 25 26 28 30 32 35 38 36 36 40 44 37 35 33 33 31 30 28 25 24 22 20 19 18 16 14 14 13 14 12 10 10 10 11 12 12 13
15 15 16 18 19 20 22 24 26 29 30 30 31 34 35 39 38 37 32 31 30 31 28 28 27 24 23 22 22 19 17 14 13 16 16 14 13 10 12 13 14 15 15
15 15 16 17 18 19 21 23 24 24 24 25 25 29 34 36 38 35 32 32 30 31 29 28 24 22 23 23 22 20 16 15 18 19 17 16 15 12 14 15 15 16 16
14 14 15 17 18 19 19 19 20 20 20 22 24 29 32 36 35 33 31 31 32 31 28 27 25 24 24 24 23 20 18 17 22 21 20 19 16 17 17 17 16 17 18
9 11 14 16 17 18 17 18 18 18 19 22 24 28 29 32 33 29 28 30 30 30 29 29 27 25 25 25 23 22 17 21 23 23 21 21 19 19 19 19 18 17 17
10 11 12 14 15 15 17 17 18 19 20 21 22 25 31 31 29 27 30 30 31 29 29 29 27 26 26 24 22 19 15 26 26 26 25 22 22 22 21 20 19 18 17
9 10 11 12 13 15 16 16 19 22 22 23 23 23 26 28 28 29 30 31 30 30 29 27 25 25 24 23 22 16 20 28 31 28 29 25 25 23 22 21 19 18 18
10 10 10 10 10 11 13 15 18 20 22 24 24 26 27 28 28 32 33 32 31 29 28 27 27 26 25 25 20 20 29 31 32 31 29 27 25 23 23 21 19 19 19
12 13 12 11 10 10 12 14 16 17 19 22 24 26 28 29 31 32 32 31 32 31 28 29 30 30 28 24 22 27 28 31 34 35 29 29 25 26 24 22 22 21 22
9 10 11 12 12 11 11 11 12 14 16 20 21 24 27 30 30 30 30 33 32 30 30 33 34 33 28 28 28 30 29 34 35 35 31 32 29 28 27 25 25 24 24
12 13 14 14 14 14 14 13 14 15 15 17 20 22 25 27 27 25 27 28 27 28 32 34 36 33 32 32 32 30 34 36 35 30 32 33 32 30 28 28 27 26 25
13 14 14 14 14 15 16 16 16 14 15 15 15 18 22 24 25 25 24 27 27 30 38 39 38 38 36 33 30 35 35 36 31 35 36 33 32 30 30 29 28 27 26
14 14 16 16 16 16 17 17 17 17 17 15 14 16 18 20 20 21 23 26 30 33 37 38 42 39 34 36 35 39 35 35 38 38 35 32 28 28 30 30 29 28 26
13 14 16 16 17 18 18 18 17 17 17 17 17 17 15 17 18 20 24 29 31 33 37 40 41 38 36 35 38 40 37 37 36 34 32 31 30 28 30 30 29 28 27
14 15 16 17 17 17 18 19 19 20 20 20 19 19 19 16 17 21 23 28 32 36 38 41 43 41 40 38 36 35 35 34 34 35 35 33 32 32 32 30 29 29 29
13 14 15 17 18 19 19 20 21 22 22 22 21 21 19 18 18 17 21 26 30 33 38 41 44 45 39 36 36 35 34 34 36 37 37 36 33 33 32 32 30 30 28
15 16 17 18 19 20 21 21 21 21 22 22 22 22 21 21 20 20 21 24 27 29 32 33 35 36 36 36 35 34 34 35 35 34 33 33 34 34 33 33 32 32 31
16 18 19 21 22 23 24 25 25 25 26 26 26 26 25 24 25 25 27 28 28 29 30 30 31 32 34 35 35 35 34 35 35 34 34 34 34 34 34 35 34 34 32
19 22 24 25 26 27 27 27 27 28 28 29 29 29 28 28 28 28 28 28 29 31 32 30 30 31 32 33 32 31 31 31 32 33 33 34 33 33 34 34 33 32 31
23 25 26 26 27 27 27 27 27 28 28 29 29 29 29 29 28 27 26 26 26 26 27 28 28 28 27 29 30 29 29 28 29 29 29 30 31 31 31 31 31 30 30
25 25 25 25 24 24 24 24 24 25 26 26 26 26 27 27 26 26 25 24 23 24 25 25 26 26 27 27 27 27 27 25 26 26 25 27 28 29 29 29 29 28 27
Wind_Direction
249 248 248 249 250 250 251 246 243 245 247 255 255 249 241 239 239 238 242 248 255 241 233 233 236 238 238 235 234 229 222 219 226 226 219 225 239 271 319 350 356 353 353
249 247 244 244 245 246 244 241 243 245 248 251 259 256 244 238 236 240 240 245 249 233 230 232 233 235 237 233 232 229 225 220 224 222 216 221 232 247 292 326 339 345 344
251 250 247 242 241 243 245 246 245 245 247 254 254 253 250 250 238 240 240 247 240 231 231 232 235 235 235 234 228 227 225 220 221 218 222 225 227 237 273 296 315 328 332
259 255 251 249 247 247 249 250 249 248 251 252 252 257 249 244 243 246 235 243 231 230 232 233 235 236 235 232 228 224 224 218 218 221 226 230 231 246 257 267 287 300 316
284 272 261 253 255 253 253 253 252 248 248 250 253 253 252 244 240 237 237 242 231 229 232 234 235 235 234 231 230 228 226 220 220 223 231 236 243 249 266 281 287 304 314
280 275 266 258 256 258 256 256 254 251 250 249 247 250 243 247 244 234 241 238 227 231 234 235 234 235 236 235 232 232 230 228 229 235 235 241 252 264 274 279 293 304 319
282 269 262 263 260 260 264 265 263 262 260 255 251 246 247 245 239 243 236 226 233 234 237 238 236 233 233 232 234 233 233 237 251 243 239 244 249 260 274 282 292 304 316
274 267 265 266 269 270 269 269 268 264 262 258 252 247 244 240 244 239 238 231 230 236 237 239 239 237 235 234 233 235 235 254 256 251 247 246 256 262 267 277 286 294 303
289 279 274 273 275 275 276 276 276 273 266 258 256 249 246 238 236 237 235 229 231 235 239 238 237 235 233 235 236 238 242 263 255 255 254 254 257 263 268 272 279 289 301
278 271 265 265 267 271 275 274 273 268 267 260 259 252 240 233 238 234 233 235 235 238 238 239 239 239 236 238 238 240 249 265 257 258 259 259 262 261 262 269 273 282 293
289 279 270 265 267 270 271 270 268 268 263 261 259 254 247 240 237 237 238 241 243 242 243 244 244 242 240 240 243 247 263 264 264 261 261 259 259 262 263 266 270 275 283
318 311 304 296 287 279 275 272 266 267 267 264 260 256 248 244 243 240 240 244 246 245 246 248 247 246 244 243 242 256 265 268 265 261 261 265 263 263 265 266 267 266 275
331 327 319 308 298 289 282 279 276 271 271 269 265 261 255 250 246 243 244 248 249 250 249 247 244 243 243 240 243 259 266 263 264 263 264 269 267 265 266 269 268 269 273
336 334 329 327 329 319 304 294 285 282 280 278 276 271 264 256 253 248 248 253 255 253 250 246 243 241 241 236 254 268 270 263 264 263 271 273 269 265 267 268 269 272 274
347 344 338 335 335 331 326 320 310 301 291 288 284 279 275 271 269 261 258 260 259 257 251 242 237 238 238 246 260 275 272 265 262 261 269 272 272 270 266 264 265 266 271
11 8 5 360 353 344 338 333 330 323 312 302 294 287 282 280 276 269 265 265 261 260 258 251 242 240 244 254 263 278 271 268 266 267 273 271 269 268 267 262 262 263 267
22 20 18 14 8 0 353 345 339 334 325 317 306 297 293 289 282 273 262 267 265 261 255 251 247 245 251 262 272 280 270 268 270 271 270 267 266 265 262 258 259 261 263
22 19 16 15 13 12 8 2 355 347 342 336 323 312 303 296 283 269 254 251 252 251 251 249 255 250 261 274 279 289 258 264 267 270 268 266 262 264 262 259 258 262 263
23 19 16 14 11 7 5 1 357 353 346 340 336 332 323 306 287 266 258 255 253 251 252 255 258 266 271 280 286 279 261 262 269 268 265 261 261 259 265 262 258 258 259
16 14 9 3 2 360 357 355 352 349 345 341 337 334 331 323 299 283 272 263 259 258 256 257 267 277 283 287 289 288 281 278 273 271 268 265 263 264 260 258 258 257 257
4 359 0 354 351 350 348 347 344 342 339 337 334 330 325 316 309 296 281 277 277 275 270 265 268 273 281 286 284 280 272 272 271 269 269 268 268 266 262 260 255 254 252
347 345 342 339 339 336 335 334 332 330 328 325 323 320 314 306 296 287 277 272 273 277 279 278 277 279 282 283 283 278 274 274 273 272 272 271 270 266 263 259 256 251 249
326 325 324 322 321 320 319 318 317 317 316 314 313 311 307 301 295 288 283 279 274 271 270 270 270 273 274 275 276 277 279 278 277 275 272 269 268 266 262 258 255 251 248
315 315 316 315 314 312 311 311 312 312 311 311 311 310 308 305 301 297 291 286 284 283 282 280 277 275 274 274 274 275 275 274 273 271 270 269 266 264 261 259 255 253 250
310 310 311 311 310 311 311 312 313 313 312 312 310 308 306 304 300 297 295 293 290 286 285 284 282 279 275 275 277 278 277 274 272 271 270 269 267 265 262 259 255 251 246
304 305 305 306 306 307 309 312 315 317 317 316 313 311 307 304 301 297 295 292 289 288 288 286 285 285 285 284 283 282 279 277 274 272 269 267 265 264 260 257 253 249 246
Height
1500 1504 1506 1508 1512 1515 1519 1522 1524 1523 1525 1529 1531 1533 1534 1535 1537 1537 1540 1540 1541 1543 1545 1547 1550 1551 1551 1550 1552 1554 1554 1553 1554 1553 1553 1554 1554 1556 1554 1551 1549 1548 1545
1491 1494 1497 1500 1502 1504 1506 1511 1515 1517 1520 1522 1525 1526 1526 1527 1527 1531 1532 1532 1535 1536 1539 1541 1543 1544 1546 1546 1547 1550 1550 1549 1550 1550 1549 1550 1549 1549 1549 1548 1546 1544 1542
1484 1485 1487 1487 1489 1493 1496 1499 1502 1506 1510 1513 1516 1518 1520 1521 1523 1524 1526 1527 1529 1531 1533 1535 1538 1539 1540 1542 1542 1545 1546 1545 1546 1546 1546 1547 1547 1546 1545 1544 1544 1541 1540
1478 1479 1481 1481 1482 1484 1488 1492 1496 1499 1502 1503 1506 1509 1510 1513 1515 1519 1519 1522 1524 1527 1530 1531 1533 1534 1535 1536 1538 1539 1541 1540 1542 1542 1542 1544 1543 1543 1543 1541 1541 1539 1538
1475 1475 1476 1478 1479 1481 1483 1484 1486 1489 1493 1497 1499 1501 1504 1506 1508 1509 1515 1516 1517 1521 1525 1526 1527 1530 1531 1531 1534 1535 1536 1536 1538 1537 1537 1539 1537 1538 1539 1538 1537 1535 1532
1471 1471 1473 1473 1475 1478 1478 1480 1480 1481 1482 1485 1488 1490 1494 1498 1500 1502 1508 1508 1513 1516 1519 1521 1522 1524 1527 1529 1529 1530 1531 1531 1532 1533 1534 1534 1533 1532 1533 1534 1532 1530 1529
1467 1468 1469 1471 1471 1472 1474 1475 1475 1476 1475 1475 1479 1483 1487 1491 1494 1497 1499 1504 1508 1511 1514 1516 1516 1517 1520 1523 1525 1526 1527 1526 1527 1529 1528 1530 1529 1528 1528 1528 1528 1526 1524
1464 1465 1466 1467 1468 1468 1469 1469 1469 1468 1469 1470 1471 1473 1477 1483 1488 1491 1494 1497 1500 1506 1507 1510 1512 1513 1516 1518 1519 1520 1521 1522 1523 1525 1523 1523 1523 1523 1524 1524 1522 1521 1520
1462 1462 1464 1465 1465 1465 1463 1465 1465 1467 1467 1465 1468 1469 1470 1473 1480 1484 1487 1491 1494 1499 1503 1506 1507 1508 1510 1513 1514 1516 1516 1517 1518 1519 1519 1519 1518 1517 1517 1518 1517 1516 1514
1457 1459 1459 1459 1460 1461 1460 1461 1462 1462 1463 1463 1463 1465 1467 1471 1474 1478 1482 1486 1489 1493 1497 1501 1502 1505 1505 1507 1507 1509 1509 1512 1513 1513 1514 1513 1512 1513 1513 1512 1512 1511 1510
1454 1455 1455 1455 1456 1456 1456 1457 1459 1459 1458 1458 1457 1460 1463 1467 1470 1473 1478 1481 1485 1487 1490 1493 1497 1498 1500 1502 1503 1505 1504 1507 1507 1506 1508 1507 1507 1507 1507 1507 1507 1506 1505
1454 1454 1454 1453 1453 1454 1454 1455 1456 1457 1456 1455 1455 1457 1459 1462 1466 1471 1473 1475 1479 1482 1485 1488 1491 1493 1495 1496 1498 1499 1500 1501 1500 1499 1500 1500 1500 1501 1501 1501 1501 1501 1500
1451 1450 1450 1450 1450 1449 1449 1451 1453 1454 1452 1452 1453 1454 1457 1459 1462 1465 1468 1470 1472 1476 1479 1482 1484 1486 1488 1489 1491 1490 1492 1493 1492 1492 1491 1493 1494 1494 1494 1494 1494 1494 1494
1450 1450 1449 1448 1447 1447 1448 1450 1450 1450 1449 1449 1450 1451 1452 1454 1457 1461 1463 1466 1468 1469 1472 1474 1476 1478 1479 1481 1482 1482 1483 1484 1484 1484 1483 1485 1486 1486 1487 1487 1487 1487 1486
1447 1448 1447 1446 1446 1446 1447 1447 1446 1445 1445 1445 1446 1448 1449 1451 1454 1458 1461 1461 1460 1462 1463 1464 1466 1468 1470 1472 1472 1474 1474 1476 1476 1476 1476 1477 1478 1478 1479 1480 1480 1480 1479
1448 1447 1445 1445 1444 1444 1444 1444 1443 1442 1442 1442 1442 1443 1445 1447 1450 1454 1456 1455 1455 1457 1456 1457 1458 1460 1462 1464 1464 1463 1464 1466 1468 1468 1469 1469 1468 1469 1470 1472 1471 1472 1471
1449 1447 1445 1444 1442 1441 1440 1439 1438 1438 1438 1438 1439 1439 1439 1442 1443 1445 1448 1451 1451 1452 1448 1449 1451 1453 1454 1455 1454 1454 1455 1457 1458 1460 1459 1459 1459 1460 1460 1461 1462 1462 1463
1452 1450 1449 1446 1443 1440 1438 1437 1436 1435 1434 1436 1437 1436 1436 1435 1436 1437 1439 1440 1440 1441 1441 1442 1444 1445 1446 1447 1446 1445 1445 1446 1448 1449 1449 1450 1450 1451 1451 1451 1452 1452 1454
1449 1449 1447 1445 1443 1442 1440 1438 1435 1433 1432 1432 1431 1431 1430 1429 1430 1430 1432 1432 1432 1433 1435 1437 1437 1438 1439 1439 1439 1437 1436 1435 1437 1438 1438 1439 1440 1440 1441 1442 1443 1443 1444
1450 1448 1447 1447 1444 1441 1439 1437 1435 1433 1431 1431 1430 1428 1425 1424 1426 1426 1425 1426 1425 1426 1428 1429 1429 1430 1431 1431 1429 1428 1427 1427 1428 1428 1429 1429 1429 1431 1431 1432 1433 1434 1435
1448 1447 1443 1446 1444 1441 1437 1434 1432 1431 1428 1427 1425 1424 1422 1420 1420 1419 1419 1419 1421 1421 1421 1422 1423 1423 1422 1421 1420 1419 1419 1419 1419 1418 1419 1420 1420 1420 1422 1422 1423 1424 1425
1447 1445 1443 1443 1440 1440 1437 1433 1430 1427 1425 1424 1422 1419 1416 1415 1414 1413 1412 1412 1412 1412 1413 1413 1412 1412 1412 1411 1411 1411 1410 1409 1408 1408 1409 1410 1410 1411 1411 1413 1413 1414 1415
1443 1442 1440 1438 1435 1433 1432 1429 1426 1423 1420 1417 1415 1414 1413 1411 1409 1407 1406 1403 1401 1400 1401 1402 1402 1402 1401 1400 1400 1400 1399 1399 1399 1399 1399 1400 1400 1401 1402 1402 1402 1404 1406
1439 1437 1435 1433 1431 1428 1425 1423 1419 1416 1412 1410 1408 1407 1405 1404 1402 1401 1399 1397 1396 1393 1392 1391 1392 1391 1390 1389 1389 1389 1388 1388 1388 1388 1389 1389 1390 1391 1392 1393 1394 1396 1398
1433 1431 1428 1426 1424 1422 1420 1416 1411 1409 1406 1404 1402 1398 1397 1396 1394 1391 1390 1389 1387 1385 1384 1382 1380 1381 1380 1379 1378 1378 1378 1378 1377 1379 1380 1380 1380 1382 1382 1384 1386 1386 1389
1426 1423 1421 1419 1417 1414 1411 1408 1406 1402 1401 1398 1393 1391 1390 1387 1386 1385 1382 1380 1378 1377 1376 1375 1373 1371 1371 1370 1369 1368 1368 1369 1368 1369 1370 1371 1371 1372 1374 1375 1378 1379 1382